| time (UTC) | temp F | wind direction | speed knots | gust knots | rain 1hr in | rain 24hr in | rain mn in | humidity % | barometer mb |
| 20260509174000 | 56 | 118 | 0.0 | 1.7 | 0.00 | 0.00 | 0.00 | 74 | 1007.0 |
| 20260509173500 | 56 | 158 | 0.0 | 1.7 | 0.00 | 0.00 | 0.00 | 74 | 1007.0 |
| 20260509173001 | 56 | 89 | 0.0 | 1.7 | 0.00 | 0.00 | 0.00 | 75 | 1007.0 |
| 20260509172500 | 56 | 134 | 0.0 | 1.7 | 0.00 | 0.00 | 0.00 | 75 | 1007.1 |
| 20260509172000 | 55 | 202 | 0.0 | 1.7 | 0.00 | 0.00 | 0.00 | 75 | 1007.2 |
| 20260509171459 | 55 | 138 | 0.0 | 1.7 | 0.00 | 0.00 | 0.00 | 76 | 1007.2 |
| 20260509171000 | 55 | 187 | 0.0 | 0.9 | 0.00 | 0.00 | 0.00 | 76 | 1007.3 |
| 20260509170500 | 55 | 328 | 0.0 | 3.5 | 0.00 | 0.00 | 0.00 | 76 | 1007.3 |
| 20260509170001 | 55 | 351 | 0.0 | 3.5 | 0.00 | 0.00 | 0.00 | 75 | 1007.4 |
| 20260509165500 | 55 | 163 | 0.0 | 2.6 | 0.00 | 0.00 | 0.00 | 75 | 1007.4 |
| 20260509165000 | 55 | 293 | 0.0 | 1.7 | 0.00 | 0.00 | 0.00 | 75 | 1007.4 |
| 20260509164500 | 55 | 349 | 0.0 | 1.7 | 0.00 | 0.00 | 0.00 | 75 | 1007.4 |
| 20260509164000 | 55 | 193 | 0.0 | 1.7 | 0.00 | 0.00 | 0.00 | 75 | 1007.4 |
| 20260509163500 | 55 | 314 | 0.0 | 1.7 | 0.00 | 0.00 | 0.00 | 76 | 1007.5 |
| 20260509163001 | 54 | 215 | 0.0 | 0.9 | 0.00 | 0.00 | 0.00 | 76 | 1007.5 |
| 20260509162501 | 54 | 193 | 0.0 | 2.6 | 0.00 | 0.00 | 0.00 | 76 | 1007.6 |
| 20260509162001 | 54 | 289 | 0.9 | 2.6 | 0.00 | 0.00 | 0.00 | 76 | 1007.8 |
| 20260509161500 | 54 | 311 | 0.0 | 1.7 | 0.00 | 0.00 | 0.00 | 77 | 1007.9 |
| 20260509161000 | 53 | 143 | 0.0 | 0.9 | 0.00 | 0.00 | 0.00 | 77 | 1007.9 |
| 20260509160501 | 53 | 323 | 0.0 | 0.9 | 0.00 | 0.00 | 0.00 | 79 | 1008.0 |
| 20260509160001 | 53 | 295 | 0.0 | 0.0 | 0.00 | 0.00 | 0.00 | 79 | 1008.1 |
| 20260509155500 | 52 | 295 | 0.0 | 0.0 | 0.00 | 0.00 | 0.00 | 80 | 1008.0 |
| 20260509155002 | 52 | 295 | 0.0 | 0.0 | 0.00 | 0.00 | 0.00 | 80 | 1008.2 |
| 20260509154501 | 52 | 295 | 0.0 | 0.0 | 0.00 | 0.00 | 0.00 | 80 | 1008.1 |
| 20260509154000 | 52 | 295 | 0.0 | 0.0 | 0.00 | 0.00 | 0.00 | 81 | 1008.2 |
| 20260509153500 | 51 | 295 | 0.0 | 0.0 | 0.00 | 0.00 | 0.00 | 81 | 1008.1 |
| 20260509153000 | 51 | 295 | 0.0 | 0.0 | 0.00 | 0.00 | 0.00 | 81 | 1008.3 |
| 20260509152500 | 51 | 295 | 0.0 | 0.0 | 0.00 | 0.00 | 0.00 | 80 | 1008.2 |
| 20260509152001 | 51 | 319 | 0.0 | 0.0 | 0.00 | 0.00 | 0.00 | 79 | 1008.3 |
| 20260509151500 | 51 | 319 | 0.0 | 0.0 | 0.00 | 0.00 | 0.00 | 79 | 1008.4 |
| 20260509150959 | 51 | 319 | 0.0 | 1.7 | 0.00 | 0.00 | 0.00 | 78 | 1008.4 |
| 20260509150500 | 51 | 64 | 0.0 | 1.7 | 0.00 | 0.00 | 0.00 | 78 | 1008.4 |
| 20260509145003 | 52 | 43 | 0.0 | 1.7 | 0.00 | 0.01 | 0.00 | 77 | 1008.5 |
| 20260509144502 | 52 | 39 | 0.0 | 1.7 | 0.00 | 0.01 | 0.00 | 79 | 1008.5 |
| 20260509143002 | 52 | 37 | 0.0 | 0.9 | 0.00 | 0.01 | 0.00 | 80 | 1008.6 |
| 20260509142502 | 52 | 23 | 0.9 | 2.6 | 0.00 | 0.01 | 0.00 | 80 | 1008.6 |
| 20260509142002 | 52 | 330 | 0.9 | 2.6 | 0.00 | 0.01 | 0.00 | 80 | 1008.6 |
| 20260509141501 | 51 | 314 | 0.0 | 2.6 | 0.00 | 0.01 | 0.00 | 80 | 1008.6 |
| 20260509140501 | 51 | 207 | 0.0 | 0.9 | 0.00 | 0.01 | 0.00 | 80 | 1008.6 |
| 20260509140002 | 50 | 44 | 0.0 | 0.0 | 0.00 | 0.01 | 0.00 | 80 | 1008.6 |
| 20260509135500 | 49 | 44 | 0.0 | 1.7 | 0.00 | 0.01 | 0.00 | 80 | 1008.7 |
| 20260509135000 | 49 | 60 | 0.0 | 1.7 | 0.00 | 0.01 | 0.00 | 79 | 1008.6 |
| 20260509134501 | 48 | 70 | 0.0 | 0.0 | 0.00 | 0.01 | 0.00 | 78 | 1008.8 |
| 20260509133959 | 48 | 68 | 0.0 | 0.0 | 0.00 | 0.01 | 0.00 | 78 | 1008.9 |
| 20260509133000 | 47 | 68 | 0.0 | 0.0 | 0.00 | 0.01 | 0.00 | 79 | 1009.0 |
| 20260509131959 | 46 | 68 | 0.0 | 0.0 | 0.00 | 0.01 | 0.00 | 79 | 1009.0 |
| 20260509131500 | 46 | 65 | 0.0 | 0.0 | 0.00 | 0.01 | 0.00 | 78 | 1009.1 |
| 20260509131000 | 46 | 65 | 0.0 | 0.9 | 0.00 | 0.01 | 0.00 | 78 | 1009.2 |
| 20260509130500 | 46 | 64 | 0.0 | 2.6 | 0.00 | 0.01 | 0.00 | 78 | 1009.2 |
| 20260509130000 | 46 | 50 | 0.0 | 2.6 | 0.00 | 0.01 | 0.00 | 78 | 1009.1 |
| 20260509125002 | 46 | 35 | 0.0 | 0.0 | 0.00 | 0.01 | 0.00 | 79 | 1008.9 |
| 20260509124502 | 46 | 35 | 0.0 | 0.0 | 0.00 | 0.01 | 0.00 | 79 | 1008.9 |
| 20260509123959 | 46 | 62 | 0.0 | 0.0 | 0.00 | 0.01 | 0.00 | 80 | 1008.8 |
| 20260509123501 | 45 | 33 | 0.0 | 0.0 | 0.00 | 0.01 | 0.00 | 79 | 1008.7 |
| 20260509123000 | 45 | 37 | 0.0 | 0.0 | 0.00 | 0.01 | 0.00 | 79 | 1008.8 |
| 20260509122501 | 45 | 260 | 0.0 | 0.0 | 0.00 | 0.01 | 0.00 | 80 | 1008.8 |
| 20260509122002 | 44 | 260 | 0.0 | 0.0 | 0.00 | 0.01 | 0.00 | 80 | 1008.8 |
| 20260509121500 | 44 | 260 | 0.0 | 0.0 | 0.00 | 0.01 | 0.00 | 79 | 1009.0 |
| 20260509121000 | 44 | 260 | 0.0 | 0.0 | 0.00 | 0.01 | 0.00 | 79 | 1009.0 |
| 20260509120501 | 44 | 300 | 0.0 | 0.0 | 0.00 | 0.01 | 0.00 | 78 | 1009.0 |
| 20260509120000 | 44 | 300 | 0.0 | 0.0 | 0.00 | 0.01 | 0.00 | 78 | 1009.0 |
| 20260509115501 | 44 | 117 | 0.0 | 0.0 | 0.00 | 0.01 | 0.00 | 77 | 1009.1 |
| 20260509114501 | 44 | 117 | 0.0 | 0.0 | 0.00 | 0.01 | 0.00 | 77 | 1009.3 |
| 20260509114000 | 44 | 117 | 0.0 | 0.0 | 0.00 | 0.01 | 0.00 | 77 | 1009.3 |
| 20260509113500 | 44 | 117 | 0.0 | 0.0 | 0.00 | 0.01 | 0.00 | 77 | 1009.3 |
| 20260509113000 | 44 | 117 | 0.0 | 0.0 | 0.00 | 0.01 | 0.00 | 77 | 1009.3 |
| 20260509112501 | 44 | 117 | 0.0 | 0.0 | 0.00 | 0.01 | 0.00 | 76 | 1009.4 |
| 20260509112001 | 43 | 117 | 0.0 | 0.0 | 0.00 | 0.01 | 0.00 | 76 | 1009.3 |
| 20260509111459 | 43 | 117 | 0.0 | 0.0 | 0.00 | 0.01 | 0.00 | 75 | 1009.2 |
| 20260509111000 | 43 | 117 | 0.0 | 0.0 | 0.00 | 0.01 | 0.00 | 76 | 1009.3 |
| 20260509110500 | 43 | 117 | 0.0 | 0.0 | 0.00 | 0.01 | 0.00 | 77 | 1009.3 |
| 20260509110001 | 43 | 117 | 0.0 | 0.0 | 0.00 | 0.01 | 0.00 | 78 | 1009.4 |
| 20260509105500 | 43 | 117 | 0.0 | 0.0 | 0.00 | 0.01 | 0.00 | 77 | 1009.4 |
| 20260509105001 | 43 | 117 | 0.0 | 0.0 | 0.00 | 0.01 | 0.00 | 77 | 1009.3 |
| 20260509104000 | 43 | 118 | 0.0 | 0.0 | 0.00 | 0.01 | 0.00 | 79 | 1009.3 |
| 20260509103501 | 42 | 117 | 0.0 | 0.0 | 0.00 | 0.01 | 0.00 | 78 | 1009.3 |
| 20260509103001 | 42 | 118 | 0.0 | 0.0 | 0.00 | 0.01 | 0.00 | 78 | 1009.3 |
| 20260509102000 | 42 | 118 | 0.0 | 0.0 | 0.00 | 0.01 | 0.00 | 78 | 1009.3 |
| 20260509101459 | 42 | 118 | 0.0 | 0.0 | 0.00 | 0.01 | 0.00 | 77 | 1009.4 |
| 20260509101000 | 42 | 118 | 0.0 | 0.0 | 0.00 | 0.01 | 0.00 | 77 | 1009.3 |
| 20260509100459 | 42 | 117 | 0.0 | 0.0 | 0.00 | 0.01 | 0.00 | 77 | 1009.1 |
| 20260509100002 | 42 | 118 | 0.0 | 0.0 | 0.00 | 0.01 | 0.00 | 77 | 1009.1 |
| 20260509095501 | 42 | 118 | 0.0 | 0.0 | 0.00 | 0.01 | 0.00 | 77 | 1009.1 |
| 20260509094501 | 42 | 118 | 0.0 | 0.0 | 0.00 | 0.01 | 0.00 | 76 | 1008.9 |
| 20260509093959 | 42 | 118 | 0.0 | 0.0 | 0.00 | 0.01 | 0.00 | 76 | 1008.9 |
| 20260509093459 | 42 | 118 | 0.0 | 0.0 | 0.00 | 0.01 | 0.00 | 76 | 1009.0 |
| 20260509093001 | 42 | 118 | 0.0 | 0.0 | 0.00 | 0.01 | 0.00 | 76 | 1008.8 |
| 20260509092501 | 42 | 118 | 0.0 | 0.0 | 0.00 | 0.01 | 0.00 | 76 | 1008.9 |
| 20260509092000 | 42 | 118 | 0.0 | 0.0 | 0.00 | 0.01 | 0.00 | 75 | 1009.0 |
| 20260509091500 | 42 | 117 | 0.0 | 0.0 | 0.00 | 0.01 | 0.00 | 74 | 1009.0 |
| 20260509090959 | 42 | 118 | 0.0 | 0.0 | 0.00 | 0.01 | 0.00 | 74 | 1009.0 |
| 20260509090500 | 42 | 118 | 0.0 | 0.0 | 0.00 | 0.01 | 0.00 | 75 | 1009.1 |
| 20260509090001 | 42 | 117 | 0.0 | 0.0 | 0.00 | 0.01 | 0.00 | 74 | 1009.2 |
| 20260509085001 | 42 | 118 | 0.0 | 0.0 | 0.00 | 0.02 | 0.00 | 73 | 1009.5 |
| 20260509084459 | 42 | 117 | 0.0 | 0.0 | 0.00 | 0.02 | 0.00 | 73 | 1009.6 |
| 20260509084002 | 42 | 118 | 0.0 | 0.0 | 0.00 | 0.02 | 0.00 | 72 | 1009.6 |
| 20260509083001 | 42 | 118 | 0.0 | 0.0 | 0.00 | 0.02 | 0.00 | 70 | 1009.7 |
| 20260509082502 | 42 | 118 | 0.0 | 0.0 | 0.00 | 0.02 | 0.00 | 69 | 1009.6 |
| 20260509082000 | 41 | 117 | 0.0 | 0.0 | 0.00 | 0.02 | 0.00 | 69 | 1009.6 |
| 20260509081002 | 41 | 117 | 0.0 | 0.0 | 0.00 | 0.02 | 0.00 | 69 | 1009.7 |
| 20260509080500 | 41 | 117 | 0.0 | 0.0 | 0.00 | 0.02 | 0.00 | 68 | 1009.7 |
| 20260509080003 | 42 | 117 | 0.0 | 0.0 | 0.00 | 0.02 | 0.00 | 68 | 1009.8 |
| 20260509075459 | 42 | 117 | 0.0 | 0.0 | 0.00 | 0.04 | 0.00 | 69 | 1009.7 |
| 20260509074459 | 42 | 117 | 0.0 | 0.0 | 0.00 | 0.04 | 0.00 | 69 | 1009.9 |
| 20260509073502 | 43 | 117 | 0.0 | 0.0 | 0.00 | 0.04 | 0.00 | 66 | 1010.0 |
| 20260509073001 | 43 | 117 | 0.0 | 0.0 | 0.00 | 0.04 | 0.00 | 65 | 1010.0 |
| 20260509072501 | 43 | 117 | 0.0 | 0.0 | 0.00 | 0.04 | 0.00 | 64 | 1010.0 |
| 20260509071959 | 44 | 117 | 0.0 | 0.0 | 0.00 | 0.04 | 0.00 | 66 | 1009.9 |
| 20260509071001 | 44 | 117 | 0.0 | 0.0 | 0.00 | 0.04 | 0.00 | 63 | 1009.9 |
| 20260509070459 | 44 | 117 | 0.0 | 0.0 | 0.00 | 0.04 | 0.00 | 62 | 1010.0 |
| 20260509070001 | 45 | 117 | 0.0 | 0.0 | 0.00 | 0.04 | 0.00 | 62 | 1009.9 |
| 20260509065459 | 45 | 117 | 0.0 | 0.0 | 0.00 | 0.11 | 0.00 | 61 | 1009.9 |
| 20260509065001 | 45 | 117 | 0.0 | 0.0 | 0.00 | 0.11 | 0.00 | 60 | 1009.9 |
| 20260509064501 | 45 | 117 | 0.0 | 0.0 | 0.00 | 0.11 | 0.00 | 59 | 1009.9 |
| 20260509063500 | 46 | 117 | 0.0 | 0.0 | 0.00 | 0.11 | 0.00 | 59 | 1010.1 |
| 20260509063001 | 46 | 143 | 0.0 | 0.0 | 0.00 | 0.11 | 0.00 | 61 | 1010.2 |
| 20260509062500 | 46 | 143 | 0.0 | 0.0 | 0.00 | 0.11 | 0.00 | 62 | 1010.3 |
| 20260509062000 | 46 | 143 | 0.0 | 0.0 | 0.00 | 0.11 | 0.00 | 59 | 1010.2 |
| 20260509061459 | 46 | 150 | 0.0 | 0.0 | 0.00 | 0.11 | 0.00 | 57 | 1010.2 |
| 20260509060959 | 46 | 149 | 0.0 | 0.0 | 0.00 | 0.11 | 0.00 | 57 | 1010.3 |
| 20260509060500 | 46 | 160 | 0.0 | 0.0 | 0.00 | 0.11 | 0.00 | 59 | 1010.5 |
| 20260509055959 | 46 | 155 | 0.0 | 0.0 | 0.00 | 0.11 | 0.00 | 58 | 1010.5 |
| 20260509055459 | 46 | 157 | 0.0 | 0.0 | 0.00 | 0.11 | 0.00 | 58 | 1010.6 |
| 20260509054959 | 46 | 158 | 0.0 | 0.0 | 0.00 | 0.11 | 0.00 | 58 | 1010.6 |
| 20260509054459 | 46 | 147 | 0.0 | 0.0 | 0.00 | 0.11 | 0.00 | 59 | 1010.8 |
| 20260509054000 | 46 | 157 | 0.0 | 0.0 | 0.00 | 0.11 | 0.00 | 58 | 1010.8 |
| 20260509053000 | 46 | 155 | 0.0 | 0.0 | 0.00 | 0.11 | 0.00 | 58 | 1011.0 |
| 20260509052500 | 46 | 185 | 0.0 | 0.0 | 0.00 | 0.11 | 0.00 | 59 | 1011.0 |
| 20260509051959 | 46 | 161 | 0.0 | 0.0 | 0.00 | 0.11 | 0.00 | 58 | 1011.0 |
| 20260509050958 | 46 | 169 | 0.9 | 1.7 | 0.00 | 0.11 | 0.00 | 59 | 1011.0 |
| 20260509050458 | 46 | 170 | 0.9 | 1.7 | 0.00 | 0.11 | 0.00 | 59 | 1011.0 |
| 20260509050002 | 46 | 155 | 0.9 | 1.7 | 0.00 | 0.11 | 0.00 | 59 | 1011.1 |
| 20260509045501 | 46 | 159 | 0.9 | 1.7 | 0.00 | 0.11 | 0.00 | 59 | 1011.2 |
| 20260509044501 | 46 | 156 | 0.9 | 1.7 | 0.00 | 0.11 | 0.00 | 59 | 1011.2 |
| 20260509044002 | 45 | 157 | 0.9 | 1.7 | 0.00 | 0.11 | 0.00 | 59 | 1011.3 |
| 20260509043501 | 45 | 158 | 0.9 | 1.7 | 0.00 | 0.11 | 0.00 | 60 | 1011.3 |
| 20260509043001 | 45 | 164 | 0.9 | 1.7 | 0.00 | 0.11 | 0.00 | 60 | 1011.2 |
| 20260509042502 | 45 | 156 | 0.9 | 1.7 | 0.00 | 0.11 | 0.00 | 60 | 1011.2 |
| 20260509042001 | 45 | 162 | 0.9 | 1.7 | 0.00 | 0.11 | 0.00 | 60 | 1011.3 |
| 20260509041502 | 45 | 154 | 0.9 | 1.7 | 0.00 | 0.11 | 0.00 | 60 | 1011.3 |
| 20260509041001 | 45 | 162 | 0.9 | 1.7 | 0.00 | 0.11 | 0.00 | 60 | 1011.3 |
| 20260509040502 | 45 | 159 | 0.9 | 0.9 | 0.00 | 0.11 | 0.00 | 62 | 1011.3 |
| 20260509040005 | 44 | 162 | 0.9 | 1.7 | 0.00 | 0.11 | 0.11 | 62 | 1011.3 |
| 20260509035001 | 44 | 159 | 0.9 | 0.9 | 0.00 | 0.11 | 0.11 | 63 | 1011.3 |
| 20260509034504 | 44 | 160 | 0.9 | 0.9 | 0.00 | 0.11 | 0.11 | 63 | 1011.3 |
| 20260509034002 | 44 | 160 | 0.9 | 0.9 | 0.00 | 0.11 | 0.11 | 63 | 1011.3 |
| 20260509033502 | 44 | 157 | 0.9 | 0.9 | 0.00 | 0.11 | 0.11 | 63 | 1011.4 |
| 20260509033003 | 44 | 163 | 0.9 | 1.7 | 0.00 | 0.11 | 0.11 | 62 | 1011.4 |
| 20260509032503 | 44 | 161 | 0.9 | 1.7 | 0.00 | 0.11 | 0.11 | 63 | 1011.4 |
| 20260509032001 | 44 | 141 | 0.9 | 1.7 | 0.00 | 0.11 | 0.11 | 63 | 1011.3 |
| 20260509031003 | 44 | 158 | 0.9 | 1.7 | 0.00 | 0.11 | 0.11 | 62 | 1011.3 |
| 20260509030504 | 44 | 153 | 0.9 | 1.7 | 0.00 | 0.11 | 0.11 | 62 | 1011.4 |
| 20260509030004 | 45 | 165 | 0.9 | 1.7 | 0.00 | 0.11 | 0.11 | 61 | 1011.5 |
| 20260509025002 | 45 | 167 | 0.9 | 1.7 | 0.00 | 0.11 | 0.11 | 61 | 1011.5 |
| 20260509024502 | 45 | 165 | 0.9 | 1.7 | 0.00 | 0.11 | 0.11 | 61 | 1011.6 |
| 20260509024002 | 45 | 163 | 0.9 | 1.7 | 0.00 | 0.11 | 0.11 | 60 | 1011.6 |
| 20260509023503 | 45 | 172 | 0.9 | 1.7 | 0.00 | 0.11 | 0.11 | 61 | 1011.6 |
| 20260509023001 | 45 | 171 | 0.9 | 1.7 | 0.00 | 0.11 | 0.11 | 59 | 1011.6 |
| 20260509022001 | 45 | 167 | 0.0 | 0.0 | 0.00 | 0.11 | 0.11 | 61 | 1011.7 |
| 20260509021502 | 45 | 169 | 0.0 | 0.0 | 0.00 | 0.11 | 0.11 | 60 | 1011.6 |
| 20260509021002 | 46 | 170 | 0.0 | 0.0 | 0.00 | 0.11 | 0.11 | 59 | 1011.6 |
| 20260509020501 | 46 | 162 | 0.0 | 0.0 | 0.00 | 0.11 | 0.11 | 58 | 1011.6 |
| 20260509015502 | 46 | 166 | 0.0 | 0.9 | 0.00 | 0.11 | 0.11 | 60 | 1011.6 |
| 20260509015002 | 46 | 191 | 0.0 | 0.9 | 0.00 | 0.11 | 0.11 | 59 | 1011.6 |
| 20260509014502 | 45 | 167 | 0.0 | 0.0 | 0.00 | 0.11 | 0.11 | 60 | 1011.6 |
| 20260509014002 | 45 | 170 | 0.0 | 0.0 | 0.00 | 0.11 | 0.11 | 60 | 1011.5 |
| 20260509013503 | 45 | 168 | 0.0 | 0.0 | 0.00 | 0.11 | 0.11 | 60 | 1011.4 |
| 20260509013002 | 45 | 169 | 0.0 | 0.0 | 0.00 | 0.11 | 0.11 | 61 | 1011.4 |
| 20260509012502 | 45 | 169 | 0.0 | 0.0 | 0.00 | 0.11 | 0.11 | 62 | 1011.3 |
| 20260509012003 | 45 | 168 | 0.0 | 0.0 | 0.00 | 0.11 | 0.11 | 60 | 1011.3 |
| 20260509011502 | 45 | 165 | 0.0 | 0.0 | 0.00 | 0.11 | 0.11 | 60 | 1011.2 |
| 20260509011001 | 45 | 165 | 0.0 | 0.0 | 0.00 | 0.11 | 0.11 | 62 | 1011.1 |
| 20260509010501 | 45 | 165 | 0.0 | 0.0 | 0.00 | 0.11 | 0.11 | 62 | 1011.0 |
| 20260509010003 | 46 | 165 | 0.0 | 0.0 | 0.00 | 0.11 | 0.11 | 62 | 1011.0 |
| 20260509005501 | 46 | 158 | 0.0 | 0.0 | 0.00 | 0.11 | 0.11 | 62 | 1010.9 |
| 20260509004003 | 46 | 155 | 0.9 | 0.9 | 0.00 | 0.11 | 0.11 | 60 | 1010.9 |
| 20260509003001 | 47 | 154 | 0.0 | 0.9 | 0.00 | 0.11 | 0.11 | 56 | 1010.8 |
| 20260509002002 | 48 | 151 | 0.9 | 0.9 | 0.00 | 0.11 | 0.11 | 53 | 1010.7 |
| 20260509001501 | 48 | 143 | 0.9 | 0.9 | 0.00 | 0.11 | 0.11 | 53 | 1010.7 |
| 20260509001001 | 48 | 141 | 0.9 | 0.9 | 0.00 | 0.11 | 0.11 | 53 | 1010.6 |
| 20260509000002 | 49 | 141 | 0.9 | 0.9 | 0.00 | 0.11 | 0.11 | 52 | 1010.5 |
| 20260508235502 | 49 | 141 | 0.9 | 0.9 | 0.00 | 0.11 | 0.11 | 52 | 1010.5 |
| 20260508235002 | 50 | 141 | 0.9 | 0.9 | 0.00 | 0.11 | 0.11 | 52 | 1010.5 |
| 20260508234503 | 50 | 141 | 0.9 | 0.9 | 0.00 | 0.11 | 0.11 | 51 | 1010.4 |
| 20260508234002 | 51 | 141 | 0.0 | 0.9 | 0.00 | 0.11 | 0.11 | 51 | 1010.3 |
| 20260508233503 | 51 | 141 | 0.9 | 0.9 | 0.00 | 0.11 | 0.11 | 51 | 1010.3 |
| 20260508233002 | 52 | 141 | 0.0 | 0.9 | 0.00 | 0.11 | 0.11 | 49 | 1010.3 |
| 20260508232503 | 52 | 140 | 0.0 | 0.0 | 0.00 | 0.11 | 0.11 | 46 | 1010.3 |
| 20260508232002 | 53 | 139 | 0.0 | 0.9 | 0.00 | 0.11 | 0.11 | 46 | 1010.3 |
| 20260508231502 | 53 | 139 | 0.0 | 0.9 | 0.00 | 0.11 | 0.11 | 45 | 1010.4 |
| 20260508231001 | 52 | 140 | 0.0 | 0.9 | 0.00 | 0.11 | 0.11 | 46 | 1010.3 |
| 20260508230501 | 52 | 140 | 0.0 | 0.9 | 0.00 | 0.11 | 0.11 | 47 | 1010.2 |
| 20260508230004 | 53 | 140 | 0.0 | 0.9 | 0.00 | 0.11 | 0.11 | 46 | 1010.2 |
| 20260508225501 | 52 | 140 | 0.0 | 0.9 | 0.00 | 0.11 | 0.11 | 45 | 1010.3 |
| 20260508225002 | 52 | 140 | 0.0 | 0.9 | 0.00 | 0.11 | 0.11 | 45 | 1010.2 |
| 20260508224501 | 53 | 148 | 0.0 | 1.7 | 0.00 | 0.11 | 0.11 | 45 | 1010.3 |
| 20260508223502 | 53 | 312 | 0.0 | 0.9 | 0.00 | 0.11 | 0.11 | 42 | 1010.4 |
| 20260508223003 | 53 | 53 | 0.0 | 1.7 | 0.00 | 0.11 | 0.11 | 43 | 1010.4 |
| 20260508222502 | 53 | 43 | 0.9 | 1.7 | 0.00 | 0.11 | 0.11 | 43 | 1010.4 |
| 20260508222001 | 53 | 48 | 0.0 | 1.7 | 0.00 | 0.11 | 0.11 | 43 | 1010.4 |
| 20260508221502 | 53 | 273 | 0.9 | 1.7 | 0.00 | 0.11 | 0.11 | 45 | 1010.4 |
| 20260508220502 | 53 | 263 | 0.9 | 2.6 | 0.00 | 0.11 | 0.11 | 41 | 1010.5 |
| 20260508220004 | 54 | 241 | 0.9 | 1.7 | 0.00 | 0.11 | 0.11 | 42 | 1010.7 |
| 20260508215501 | 53 | 290 | 0.9 | 1.7 | 0.00 | 0.11 | 0.11 | 44 | 1010.6 |
| 20260508214502 | 53 | 306 | 0.9 | 2.6 | 0.00 | 0.11 | 0.11 | 48 | 1010.7 |
| 20260508214002 | 53 | 55 | 0.9 | 2.6 | 0.00 | 0.11 | 0.11 | 45 | 1010.6 |
| 20260508213502 | 52 | 229 | 0.9 | 2.6 | 0.00 | 0.11 | 0.11 | 45 | 1010.7 |
| 20260508213002 | 52 | 348 | 0.0 | 1.7 | 0.00 | 0.11 | 0.11 | 46 | 1010.8 |
| 20260508212501 | 52 | 246 | 0.0 | 1.7 | 0.00 | 0.11 | 0.11 | 49 | 1010.8 |
| 20260508212002 | 53 | 299 | 0.0 | 1.7 | 0.00 | 0.11 | 0.11 | 47 | 1010.8 |
| 20260508211502 | 53 | 231 | 0.9 | 1.7 | 0.00 | 0.11 | 0.11 | 47 | 1010.7 |
| 20260508211002 | 53 | 281 | 0.9 | 1.7 | 0.00 | 0.11 | 0.11 | 46 | 1010.8 |
| 20260508210501 | 54 | 101 | 0.9 | 2.6 | 0.00 | 0.11 | 0.11 | 47 | 1010.7 |
| 20260508210003 | 53 | 318 | 0.9 | 2.6 | 0.00 | 0.11 | 0.11 | 46 | 1010.9 |
| 20260508205502 | 53 | 212 | 0.9 | 4.3 | 0.00 | 0.11 | 0.11 | 46 | 1010.9 |
| 20260508205003 | 54 | 304 | 0.9 | 4.3 | 0.00 | 0.11 | 0.11 | 45 | 1011.0 |
| 20260508204502 | 54 | 202 | 1.7 | 3.5 | 0.00 | 0.11 | 0.11 | 43 | 1011.0 |
| 20260508204001 | 54 | 288 | 1.7 | 3.5 | 0.00 | 0.11 | 0.11 | 44 | 1011.0 |
| 20260508203502 | 54 | 265 | 1.7 | 4.3 | 0.00 | 0.11 | 0.11 | 44 | 1010.9 |
| 20260508202502 | 54 | 308 | 0.9 | 6.1 | 0.00 | 0.11 | 0.11 | 46 | 1010.9 |
| 20260508202002 | 54 | 325 | 0.9 | 6.1 | 0.00 | 0.11 | 0.11 | 45 | 1011.0 |
| 20260508201002 | 53 | 153 | 1.7 | 5.2 | 0.00 | 0.11 | 0.11 | 47 | 1011.1 |
| 20260508200502 | 53 | 293 | 1.7 | 6.1 | 0.00 | 0.11 | 0.11 | 44 | 1011.2 |
| 20260508200003 | 53 | 287 | 1.7 | 5.2 | 0.00 | 0.11 | 0.11 | 47 | 1011.2 |
| 20260508195502 | 53 | 263 | 1.7 | 5.2 | 0.00 | 0.11 | 0.11 | 47 | 1011.3 |
| 20260508195002 | 53 | 217 | 0.9 | 3.5 | 0.00 | 0.11 | 0.11 | 49 | 1011.4 |
| 20260508194502 | 52 | 250 | 1.7 | 5.2 | 0.00 | 0.11 | 0.11 | 53 | 1011.4 |
| 20260508194002 | 52 | 262 | 1.7 | 5.2 | 0.00 | 0.11 | 0.11 | 51 | 1011.5 |
| 20260508193502 | 52 | 321 | 1.7 | 6.1 | 0.00 | 0.11 | 0.11 | 48 | 1011.4 |
| 20260508192503 | 51 | 177 | 1.7 | 3.5 | 0.00 | 0.11 | 0.11 | 56 | 1011.4 |
| 20260508192002 | 50 | 347 | 1.7 | 3.5 | 0.00 | 0.11 | 0.11 | 56 | 1011.5 |
| 20260508191502 | 51 | 251 | 0.9 | 3.5 | 0.00 | 0.11 | 0.11 | 54 | 1011.4 |
| 20260508191001 | 50 | 287 | 0.9 | 4.3 | 0.00 | 0.11 | 0.11 | 58 | 1011.4 |
| 20260508190501 | 50 | 298 | 0.9 | 3.5 | 0.00 | 0.11 | 0.11 | 63 | 1011.5 |
| 20260508190003 | 49 | 281 | 0.9 | 569.2 | 1.67 | 0.00 | 0.11 | 60 | |
| 20260508185501 | 50 | 297 | 0.9 | 1.7 | 0.00 | 0.11 | 0.11 | 58 | 1011.6 |
| 20260508185003 | 50 | 249 | 0.9 | 3.5 | 0.00 | 0.11 | 0.11 | 57 | 1011.7 |
| 20260508184501 | 50 | 239 | 0.9 | 3.5 | 0.00 | 0.11 | 0.11 | 59 | 1011.6 |
| 20260508184001 | 49 | 233 | 1.7 | 6.1 | 0.00 | 0.11 | 0.11 | 63 | 1011.6 |
| 20260508183501 | 49 | 18 | 1.7 | 6.1 | 0.00 | 0.11 | 0.11 | 60 | 1011.7 |
| 20260508182502 | 48 | 350 | 0.9 | 3.5 | 0.00 | 0.11 | 0.11 | 65 | 1012.0 |
| 20260508182002 | 47 | 310 | 0.9 | 1.7 | 0.00 | 0.11 | 0.11 | 65 | 1012.0 |
| 20260508181501 | 47 | 285 | 0.9 | 2.6 | 0.00 | 0.11 | 0.11 | 64 | 1012.0 |
| 20260508180501 | 48 | 249 | 0.9 | 5.2 | 0.00 | 0.11 | 0.11 | 66 | 1011.9 |
| 20260508180003 | 48 | 108 | 1.7 | 5.2 | 0.00 | 0.11 | 0.11 | 65 | 1012.0 |
| 20260508174959 | 48 | 283 | 1.7 | 3.5 | 0.00 | 0.11 | 0.11 | 65 | 1012.0 |
| 20260508174500 | 47 | 290 | 0.9 | 3.5 | 0.00 | 0.11 | 0.11 | 65 | 1011.9 |